Starlink 30603

operational
NORAD ID: 58080 Int'l Des: 2023-160 Owner: SPXS Country: US Constellation: starlink
LEOCIRCULAR

Starlink 30603について

説明を読み込み中...

リアルタイム位置

3D地球を読み込み中...

次回通過

高度履歴

Altitude vs Time

uPlot chart will show altitude changes over time

軌道要素

1 58080U 23160F 25308.62671231 .00000458 00000-0 48961-4 0 9998
2 58080 43.0040 39.9485 0001137 272.9618 87.1094 15.02537571114101
Epoch: Nov 4, 2025 • Age: 7 hours

現在のステータス

高度 562.1 km
速度 7.59 km/s
衛星直下点 39.24°N, 88.77°E
打ち上げ日 Oct 18, 2023
運用期間 2 years
タイプ internet

技術仕様

分類 Payload
質量 730.00 kg
乾燥質量 700.00 kg
総質量 730.00 kg
長さ 0.30 m
直径 4.10 m
スパン 29.00 m
形状 Box + pan
製造者 SPXS
バスタイプ Starlink V2M
フェーズステータス In Orbit
所有者/国 SPXS/US

大規模コンステレーション

Loading constellations...